Regional Weather Roundup
Issued by NWS

Home | Current Version | Previous Version | Text Only | Print | Product List | Glossary Off
Versions: 1 2 3 4 5 6 7 8 9 10 11 12 13 14 15 16 17 18 19 20 21 22 23 24 25 26 27 28 29 30 31 32 33 34 35 36 37 38 39 40 41 42 43 44 45 46 47 48 49 50

000
ASUS45 KTFX 211919
RWRMT
MONTANA HOURLY WEATHER ROUNDUP
NATIONAL WEATHER SERVICE GREAT FALLS MT
119 PM MDT THU AUG 21 2014

NOTE: "FAIR" INDICATES FEW OR NO CLOUDS BELOW 12000 FEET WITH NO
SIGNIFICANT WEATHER AND/OR OBSTRUCTIONS TO VISIBILITY.

* THESE STATIONS ARE NOT UNDER NWS QUALITY CONTROL. THEY DO NOT
   REPORT WEATHER SUCH AS PRECIPITATION OR FOG.

MTZ001>007-043-212000-
WEST OF THE DIVIDE
CITY           SKY/WX    TMP DP  RH WIND       PRES   REMARKS
KALISPELL      CLOUDY    61  48  62 N15       30.07S
MISSOULA       SUNNY     73  50  44 N/A       30.00F
BUTTE          PTCLDY    64  43  47 VRB3      30.09F
MULLAN PASS    CLOUDY    55  48  77 CALM      30.11S
* ESSEX        N/A       57  50  78 S4         N/A
* LINCOLN      N/A       63  51  65 E9G14      N/A
* LOOKOUT PASS N/A       61  51  70 N4         N/A
* POLSON       N/A       65  59  81 N3         N/A
* RONAN APT    PTCLDY    66  54  65 NW9        N/A
* SEELEY LAKE  N/A       66  47  51 W3G10      N/A
* THOMP F APT  SUNNY     59  50  72 S6         N/A
* YAAK HILL    N/A       69  52  55 N/A        N/A
$$

MTZ008-052>055-212000-
SOUTHWEST MONTANA
CITY           SKY/WX    TMP DP  RH WIND       PRES   REMARKS
BOZEMAN        LGT RAIN  57  52  83 CALM      30.11R
DILLON         SUNNY     64  48  56 CALM      30.08F
W YELLOWSTONE  CLOUDY    55  46  72 SW16G23   30.16F
* THREE FORKS  PTSUNNY   59  41  51 NE5        N/A
* BOULDER HILL N/A       56  43  62 NE7        N/A
* MONIDA PASS  N/A       58  48  70 SE12       N/A
* RAYNOLDS PAS N/A       54  35  49 SE8        N/A
* WHITEHALL    N/A       60  55  84 E4         N/A
* WISE RIVER   N/A       67  44  44 S4G9       N/A
$$

MTZ009>010-012-014-046-048-049-054-212000-
EAST SLOPES AND CENTRAL MONTANA
CITY           SKY/WX    TMP DP  RH WIND       PRES   REMARKS
CUT BANK       CLOUDY    54  52  93 N13       30.13S
GREAT FALLS    CLOUDY    59  50  72 W5        30.09S
HELENA         PTSUNNY   66  48  52 CALM      30.07F
MALMSTROM AFB  CLOUDY    59  52  78 NW7       30.10S
* CONRAD       PTCLDY    55  54  96 W9         N/A
* DEARBORN     N/A       59  51  75 VRB5       N/A
* EAST GLACIER N/A       48  46  93 E11        N/A
* MONARCH      N/A       50  47  89 NW6        N/A
* PENDROY      N/A       52  50  93 VRB9       N/A
* ROGERS PASS  N/A       50  48  93 S2G7       N/A
* SAINT MARY   N/A       49  47  93 N4G9       N/A
* SWEET GRASS  N/A       53  53 100 NE12       N/A
* WHITE SULPH  N/A       59  47  65 SW3G10     N/A
$$

MTZ011-013-016-021-035-040-045-047-050-051-212000-
NORTH CENTRAL MONTANA
CITY           SKY/WX    TMP DP  RH WIND       PRES   REMARKS
HAVRE          CLOUDY    66  55  68 NW12      30.03F
LEWISTOWN      CLOUDY    63  54  73 NW8       30.08F
* FORT BENTON  PTSUNNY   63  54  73 CALM      30.08S
* CHESTER      N/A       60  50  70 NE11G23    N/A
* DENTON       N/A       62  54  75 NW8        N/A
* GEYSER       N/A       61  49  65 W14G20     N/A
* JUDITH GAP   N/A       59  52  78 N15        N/A
$$

MTZ017>020-022>027-061-062-212000-
NORTHEAST MONTANA
CITY           SKY/WX    TMP DP  RH WIND       PRES   REMARKS
GLASGOW        PTSUNNY   73  57  57 SE8       29.97F
GLENDIVE       PTSUNNY   75  61  62 W14       29.97S
JORDAN         PTSUNNY   70  55  59 N6        29.99F
SIDNEY         PTSUNNY   70  61  73 N10       29.98R
WOLF POINT     PTSUNNY   72  59  64 E9        29.97F
* BEAVER HILL  N/A       74  57  55 NW4        N/A
* CIRCLE       N/A       67  60  78 NE9        N/A
* LINDSAY DVD  N/A       68  59  73 N16G22     N/A
* SACO         N/A       70  57  64 N4G11      N/A
$$

MTZ028>042-056>058-212000-
SOUTHCENTRAL AND SOUTHEAST MONTANA
CITY           SKY/WX    TMP DP  RH WIND       PRES   REMARKS
BAKER          PTSUNNY   75  57  54 NW10      29.98F
BILLINGS       CLOUDY    64  55  73 E6        30.05S
LIVINGSTON     RAIN      57  52  83 SW6       30.09R VSB 2 1/2
MILES CITY     PTSUNNY   73  55  53 NW12      29.98F
* LAUREL APT   CLOUDY    64  55  73 N/A        N/A
* ROUNDUP APT  CLOUDY    66  54  65 N/A        N/A
* ALZADA       N/A       77  50  39 NE1        N/A
* HYSHAM       N/A       68  50  53 N4G12      N/A
* LAME DEER    N/A       67  53  61 VRB5       N/A
* REED POINT   N/A       64  57  78 SW1        N/A
* ROSCOE HILL  N/A       59  51  75 SE4        N/A
$$

REGIONAL REPORTS...DAKOTAS
CITY           SKY/WX    TMP DP  RH WIND       PRES   REMARKS
WILLISTON      CLOUDY    68  59  73 N9        29.96R
DICKINSON      SUNNY     77  61  58 N9        29.93R
BEACH          N/A       73  63  71 NW6       29.97S
CROSBY         CLOUDY    66  63  90 NW10G16   29.96R
TIOGA          CLOUDY    70  64  81 N15       29.98R
WATFORD CITY   SUNNY     73  59  62 NW10      29.93R
BISMARCK       PTCLDY    79  64  60 NW13      29.87R
GRAND FORKS    CLOUDY    75  68  79 CALM      29.78R
FARGO          CLOUDY    75  70  85 E8        29.77R
BUFFALO SD     PTCLDY    79  55  44 N9        29.89F
RAPID CITY     PTCLDY    81  55  41 E6        29.98R HI  81
$$

REGIONAL REPORTS...WYOMING/IDAHO/WASHINGTON
CITY           SKY/WX    TMP DP  RH WIND       PRES   REMARKS
GILLETTE       PTSUNNY   73  52  48 E5        30.02F
SHERIDAN       PTSUNNY   75  50  42 NE6       30.02F
CODY           CLOUDY    63  52  68 CALM      30.09F
YELLOWSTONE LA CLOUDY    52  46  80 VRB5      30.23F
SALMON         PTCLDY    70  52  53 E5        30.01F
MULLAN PASS    CLOUDY    55  48  77 CALM      30.11S
SAND POINT     PTSUNNY   72  52  49 NE7       30.00S
SPOKANE        PTSUNNY   72  50  46 CALM      29.98F
$$

REGIONAL REPORTS...ALBERTA
CITY           SKY/WX    TMP DP  RH WIND       PRES   REMARKS
CALGARY        LGT RAIN  54  45  72 NE9       30.20S
LETHBRIDGE     LGT RAIN  54  50  86 NW13      30.17R
MEDICINE HAT   LGT RAIN  55  54  96 N10       30.11R
EDMONTON       PTSUNNY   57  43  60 N3        30.19R
WATERTON GATE  N/A       52  48  86 NE6        N/A
CARDSTON       N/A       50  50 100 N8         N/A
MILK RIVER     N/A       55  50  83 N12        N/A
$$

REGIONAL REPORTS...SASKATCHEWAN
CITY           SKY/WX    TMP DP  RH WIND       PRES   REMARKS
SWIFT CURRENT  CLOUDY    61  55  81 NE17      30.05R
MOOSE JAW      CLOUDY   N/A N/A N/A NE12       N/A
REGINA         PTSUNNY   66  57  73 N16       29.99R
VAL MARIE      N/A       64  57  78 NE8        N/A
ASSINIBOIA     N/A       66  54  65 NE13       N/A

$$



USA.gov is the U.S. government's official web portal to all federal, state and local government web resources and services.